RADUGA-1M 2 [+]

Last updated on Tue Jun 27 2023 00:03:02 GMT+0000 (Coordinated Universal Time)

1 36358U 10002A 23177.39737094 -.00000168 00000+0 00000+0 0 9994 2 36358 0.7991 93.7521 0003460 10.3728 38.2295 1.00272564 49115
UTC large
Height (km)
Speed (km/s)
/
Latitude / Longitude
Inclination (degrees)
Orbital Period (minutes)
Azimuth
Elevation
Range (km)
Doppler Factor

Next 0 passes for location: London (51.5072 / 0.1276)

Sorry there are no passes over London.